Selinsgrove, PA

5:22 PM EDT on September 19, 2019 (GMT -0400)
Penn Valley

Weather History for KSEG - August, 2019

Change the Weather History Date:

Saturday, August 17, 2019

  Actual Average (KIPT) Record (KIPT)
Temperature  
Mean Temperature 76 °F -  
Max Temperature 89 °F 79 °F 97 °F (1995)
Min Temperature 66 °F 59 °F 45 °F (1979)
Cooling Degree Days 12    
Growing Degree Days 26 (Base 50)    
Moisture  
Dew Point 69 °F    
Average Humidity 85    
Maximum Humidity 100    
Minimum Humidity 55    
Precipitation  
Precipitation 0.04 in - - ()
Sea Level Pressure  
Sea Level Pressure 29.99 in    
Wind  
Wind Speed 1 mph (West)    
Max Wind Speed 7 mph    
Max Gust Speed -    
Visibility 7 miles    
Events Rain    
Averages and records for this station are not official NWS values.
T = Trace of Precipitation, MM = Missing Value Source: NWS Daily Summary

Daily Weather History Graph

Daily Weather History Graph

Search for Another Location

Airport or City:

Astronomy

Aug. 17, 2019 Rise Set
Actual Time 6:19 AM EDT 8:03 PM EDT
Civil Twilight 5:50 AM EDT 8:32 PM EDT
Nautical Twilight 5:14 AM EDT 9:07 PM EDT
Astronomical Twilight 4:36 AM EDT 9:45 PM EDT
Moon 9:29 PM EDT (8/17) 8:06 AM EDT (8/17)
Length of Visible Light 14h 42m
Length of Day
13h 43m
Waning Gibbous, 96% of the Moon is Illuminated
Aug 17
Waning Gibbous
Aug 23
Last Quarter
Aug 30
New
Sep 5
First Quarter
Sep 14
Full

Hourly Weather History & Observations

Time (EDT) Temp. Heat Index Dew Point Humidity Pressure Visibility Wind Dir Wind Speed Gust Speed Precip Events Conditions
12:37 AM 66.9 °F - 66.0 °F 97% 30.00 in 1.5 mi Calm Calm - N/A   Clear
12:49 AM 66.2 °F - 66.2 °F 100% 30.01 in 4.0 mi Calm Calm - N/A   Clear
12:53 AM 66.9 °F - 66.0 °F 97% 30.00 in 5.0 mi Calm Calm - N/A   Clear
1:53 AM 66.9 °F - 66.0 °F 97% 30.00 in 5.0 mi Calm Calm - N/A   Partly Cloudy
2:53 AM 66.9 °F - 66.0 °F 97% 30.00 in 4.0 mi Calm Calm - N/A   Partly Cloudy
3:53 AM 68.0 °F - 66.9 °F 96% 30.00 in 5.0 mi Calm Calm - 0.01 in   Overcast
4:02 AM 68.0 °F - 66.9 °F 96% 30.00 in 5.0 mi Calm Calm - N/A   Overcast
4:50 AM 69.8 °F - 68.0 °F 94% 30.00 in 2.5 mi Calm Calm - 0.03 in Rain Rain
4:53 AM 69.1 °F - 68.0 °F 96% 30.00 in 2.5 mi Calm Calm - 0.03 in Rain Light Rain
5:00 AM 69.1 °F - 68.0 °F 96% 30.00 in 4.0 mi Calm Calm - 0.00 in Rain Light Rain
5:12 AM 69.1 °F - 68.0 °F 96% 30.00 in 4.0 mi Calm Calm - 0.00 in   Overcast
5:53 AM 70.0 °F - 69.1 °F 97% 29.99 in 3.0 mi Calm Calm - 0.00 in   Overcast
6:53 AM 70.0 °F - 69.1 °F 97% 29.99 in 3.0 mi Calm Calm - N/A   Overcast
7:53 AM 71.1 °F - 70.0 °F 96% 30.01 in 5.0 mi Calm Calm - N/A   Overcast
8:53 AM 73.0 °F - 71.1 °F 93% 30.00 in 6.0 mi Calm Calm - N/A   Overcast
9:51 AM 75.2 °F - 71.6 °F 89% 30.01 in 6.0 mi Calm Calm - N/A   Overcast
9:53 AM 75.9 °F - 72.0 °F 87% 30.00 in 6.0 mi Calm Calm - N/A   Overcast
10:53 AM 78.1 °F - 72.0 °F 81% 30.01 in 9.0 mi SSW 3.5 mph - N/A   Overcast
11:07 AM 80.1 °F 84.2 °F 73.0 °F 79% 30.02 in 9.0 mi Variable 3.5 mph - N/A   Mostly Cloudy
11:53 AM 82.0 °F 87.4 °F 73.0 °F 74% 30.01 in 10.0 mi SW 6.9 mph - N/A   Scattered Clouds
12:53 PM 82.0 °F 86.7 °F 72.0 °F 71% 29.99 in 10.0 mi Calm Calm - N/A   Scattered Clouds
1:53 PM 86.0 °F 93.0 °F 73.0 °F 65% 29.98 in 10.0 mi South 4.6 mph - N/A   Clear
2:53 PM 86.0 °F 90.7 °F 70.0 °F 59% 29.96 in 10.0 mi Variable 3.5 mph - N/A   Partly Cloudy
3:53 PM 87.1 °F 92.0 °F 70.0 °F 57% 29.94 in 10.0 mi SSW 3.5 mph - N/A   Partly Cloudy
4:53 PM 87.1 °F 91.3 °F 69.1 °F 55% 29.93 in 10.0 mi Variable 5.8 mph - N/A   Clear
5:53 PM 86.0 °F 91.5 °F 71.1 °F 61% 29.93 in 10.0 mi Variable 4.6 mph - N/A   Partly Cloudy
6:53 PM 82.0 °F 87.4 °F 73.0 °F 74% 29.94 in 5.0 mi Calm Calm - N/A   Haze
7:53 PM 77.0 °F - 72.0 °F 84% 29.95 in 10.0 mi Calm Calm - N/A   Clear
8:53 PM 73.9 °F - 72.0 °F 93% 29.96 in 10.0 mi North 3.5 mph - N/A   Partly Cloudy
9:53 PM 75.0 °F - 70.0 °F 84% 29.98 in 10.0 mi North 5.8 mph - N/A   Partly Cloudy
10:53 PM 71.1 °F - 66.9 °F 87% 29.98 in 10.0 mi North 3.5 mph - N/A   Partly Cloudy
11:53 PM 70.0 °F - 66.9 °F 90% 29.97 in 10.0 mi NNW 4.6 mph - N/A   Scattered Clouds